sat.trackr.live / text

‹ back to catalog

STARLINK-36048

NORAD 66603 · 2025-270R

PAYLOAD ACTIVE UNKNOWN

§ Identity

Operator
Country
US
Launch date
2025-11-22
Launch site
AFETR
Launch vehicle
Mass (kg)
RCS (m²)

Purposes: comms

External: N2YO · Heavens-Above · Gunter

§ Orbital elements

Epoch: 2026-05-24T21:31:40.209888Z

Period
94.27 min
Inclination
43.0030°
Eccentricity
0.0002242
Mean motion
15.27581300 rev/d
Perigee alt
481.5 km
Apogee alt
484.6 km
Semi-major
6,861.2 km
B*
6.0346e-4
RAAN
345.5545°
Arg perigee
266.9136°
Mean anomaly
93.1459°
Rev number
2,926

§ Raw data

STARLINK-360481 66603U 25270R   26144.89699317  .00016382  00000+0  60346-3 0  99972 66603  43.0030 345.5545 0002242 266.9136  93.1459 15.27581300 29269

JSON: /api/v1/satellites/66603 · /tle

For live sub-satellite position, see the globe view (requires WebGL).

§ Visibility from observer

Set your observer location to see the next 7 days of passes ≥ 10°. The values pass through the URL so the page stays shareable.

No JS? Fill the form by hand. The geolocation button needs JavaScript.